Location: Edinburgh
(55.9500°N, 3.1600°W)
Time: 16:33:19
(UTC+00:00)

Envisat - Pass Details

Date: 07 October 2017
Orbit: 764 x 766 km, 98.2° (Epoch: 18 December)

Event Time Altitude Azimuth Distance (km) Brightness Sun altitude
Exits shadow 21:17:47 16° 191° (S) 1,934 4.9 -23.5°
Maximum altitude 21:21:42 48° 261° (W) 1,003 3.8 -24.0°
Drops below altitude 10° 21:26:39 10° 336° (NNW) 2,319 6.2 -24.6°
Sets 21:29:03 0° 342° (NNW) 3,251 6.9 -24.9°
